STARLINK-4723, 53797

Orbit data source: Space-Track

STARLINK-4723, 53797 is a payload satellite owned by SpaceX/Seattle (US) in LEO that was launched on Sun, 11 Sep 2022 UTC via an FALCON 9 launch vehicle from the Air Force Eastern Test Range (AFETR). Payload-class satellites include a variety of spacecraft equipped with specific instruments for various scientific and technological missions. These include communications satellites like Starlink; space stations such as the ISS; scientific satellites like the Hubble; Earth observation satellites from companies like Planet Labs, Umbra, and HawkEye 360; GPS; miniature CubeSats for education and research; and military/defense satellites.

Loading next visibility...
Identifier
53797, 2022-111AA
Orbit
LEO
Country
Flag of USUS
Related business
Manufacturer
SpaceX/Seattle
Mission
Operational Commercial Communications
Bus & Motor
STARLINK, Unknown motor
Mass
305 kg wet, ~290 kg dry
Launch date (UTC)
2022-09-11 (4 years ago)
Launch vehicle
FALCON 9
Launch site
Air Force Eastern Test Range (AFETR)
Object type
Payload
Rocket body
Debris
Shape & HBR
Box + 1 Pan, 10.1 m
Radar Cross Section
13.562 m², Large (>1 m²)

Expand to show TLE details & history
Last TLE update: 11 hours ago

TLE from 11 hours ago
0 STARLINK-4723
1 53797U 22111AA  26130.36803319 -.00002267  00000-0 -12438-3 0  9993
2 53797  53.2186 356.8009 0001316  97.3535 262.7607 15.08842725202996
Epoch: 2026-05-10T08:49Z
TLE epoch observation values (Epoch: 2026-05-10T08:49:58.067Z)
Latitude
-0.00001°
Longitude
-3.86317°
Altitude
540.747 km
Speed
7.593 km/s
True Right ascension
23h 47m 12s
True Declination
0° 00' 00"
Sunlit
Object was in daylight at epoch
Visualization orbit readout
Latitude
Unknown
Longitude
Unknown
Altitude
Unknown
Speed
Unknown
Apparent Right ascension
Unknown
Apparent Declination
Unknown
Sunlit
N/A
Visualization observer readout
Local Sidereal Time
04:04:03
Azimuth
Unknown
Elevation
Unknown
Doppler factor
Unknown
Orbital elements
Apogee altitude
540.89 km
Perigee altitude
539.069 km
Semi-major axis
6,918.117 km
Eccentricity
0.00013
Inclination
53.2186°
RAAN
356.8009°
Arg. of periapsis
97.3535°
True anomaly
262.74574°
Mean anomaly
262.7607°
Eccentric anomaly
262.75322°
Mean motion
3.77191 °/min
Orbital period
95.44 mins
BSTAR
-0.00012438
Loading maneuver chart data...
Computing Atmospheric mass density...
Loading historical data...
Loading historical data...
Loading historical data...
Loading historical data...
Loading historical data...
Loading historical data...
Loading historical data...

Documentation

Showing up to 5 results
|